Terug naar catalogus

COSMOS 1275 DEB

ActiefPO
NORAD 12654·DEBRIS·🇷🇺 Russia

Gelanceerd Jun 4, 1981 vanaf Plesetsk Cosmodrome

Loading…

Volgende Passages (komende 24 uur)

TLE

VersSource: Space-Track

Epoch: Sep 14, 2026, 11:18 UTC

1 12654U 81053J   26257.47150615  .00000553  00000-0  30649-3 0  9994
2 12654  82.9834 150.3449 0045822 353.9043 125.1608 14.09114643300670

Volg COSMOS 1275 DEB in realtime met AllMySat

Download on the App Store